Kirksville, MO

11:23 AM CDT on May 26, 2018 (GMT -0500)
Kirksville Regional

Weather History for KIRK - November, 2013

Change the Weather History Date:

Monday, November 11, 2013

  Actual Average Record
Temperature  
Mean Temperature 38 °F 43 °F  
Max Temperature 53 °F 53 °F 80 °F (1949)
Min Temperature 22 °F 33 °F 9 °F (1986)
Degree Days  
Heating Degree Days 27 22  
Month to date heating degree days 220 219  
Since 1 July heating degree days 683 708  
Cooling Degree Days 0 0  
Month to date cooling degree days 0 0  
Year to date cooling degree days 1028 939  
Moisture  
Dew Point 29 °F    
Average Humidity 62    
Maximum Humidity 78    
Minimum Humidity 46    
Precipitation  
Precipitation T in 0.10 in 1.45 in (1931)
Month to date precipitation 0.69 1.24  
Year to date precipitation 35.98 36.08  
Sea Level Pressure  
Sea Level Pressure 30.33 in    
Wind  
Wind Speed 13 mph (NW)    
Max Wind Speed 25 mph    
Max Gust Speed 32 mph    
Visibility 10 miles    
Events Rain    
T = Trace of Precipitation, MM = Missing Value Source: NWS Daily Summary

Daily Weather History Graph

Daily Weather History Graph

Search for Another Location

Airport or City:

Astronomy

Nov. 11, 2013 Rise Set
Actual Time 6:51 AM CST 4:56 PM CST
Civil Twilight 6:22 AM CST 5:25 PM CST
Nautical Twilight 5:49 AM CST 5:58 PM CST
Astronomical Twilight 5:17 AM CST 6:30 PM CST
Moon 1:38 PM CST (11/11) 12:36 AM CST (11/11)
Length of Visible Light 11h 03m
Length of Day
10h 05m
Waxing Gibbous, 66% of the Moon is Illuminated
Nov 11
Waxing Gibbous
Nov 17
Full
Nov 25
Last Quarter
Dec 2
New
Dec 9
First Quarter

Hourly Weather History & Observations

Time (CST) Temp. Windchill Dew Point Humidity Pressure Visibility Wind Dir Wind Speed Gust Speed Precip Events Conditions
12:55 AM 48.9 °F - 28.9 °F 46% 30.23 in 10.0 mi SSW 8.1 mph - N/A   Overcast
1:55 AM 48.9 °F - 28.9 °F 46% 30.22 in 10.0 mi SSW 6.9 mph - N/A   Overcast
2:55 AM 48.0 °F - 28.9 °F 48% 30.20 in 10.0 mi SSW 5.8 mph - N/A   Mostly Cloudy
3:55 AM 45.0 °F 41.2 °F 28.9 °F 53% 30.17 in 10.0 mi SSW 6.9 mph - N/A   Scattered Clouds
4:55 AM 45.0 °F 41.2 °F 30.0 °F 56% 30.18 in 10.0 mi SSW 6.9 mph - N/A   Scattered Clouds
5:55 AM 44.1 °F 40.8 °F 30.9 °F 60% 30.17 in 10.0 mi SW 5.8 mph - N/A   Partly Cloudy
6:55 AM 45.0 °F 42.6 °F 33.1 °F 63% 30.18 in 10.0 mi SW 4.6 mph - N/A   Clear
7:55 AM 48.9 °F - 36.0 °F 61% 30.18 in 10.0 mi SW 5.8 mph - N/A   Mostly Cloudy
8:51 AM 51.8 °F - 39.2 °F 62% 30.16 in 10.0 mi WSW 9.2 mph - N/A   Overcast
8:55 AM 53.1 °F - 39.0 °F 59% 30.18 in 10.0 mi WSW 8.1 mph - N/A   Overcast
9:21 AM 53.6 °F - 41.0 °F 62% 30.17 in 10.0 mi West 6.9 mph - N/A   Overcast
9:55 AM 53.1 °F - 41.0 °F 64% 30.20 in 10.0 mi West 6.9 mph - N/A   Overcast
10:55 AM 53.1 °F - 43.0 °F 69% 30.21 in 10.0 mi NNW 10.4 mph 17.3 mph N/A   Overcast
11:55 AM 48.0 °F - 36.0 °F 63% 30.23 in 10.0 mi North 17.3 mph 27.6 mph N/A   Overcast
12:55 PM 44.1 °F 36.8 °F 33.1 °F 65% 30.26 in 10.0 mi North 16.1 mph 24.2 mph N/A   Overcast
1:32 PM 42.8 °F 35.4 °F 33.8 °F 70% 30.25 in 8.0 mi North 15.0 mph - 0.00 in Rain Light Rain
1:55 PM 42.1 °F 33.3 °F 32.0 °F 67% 30.28 in 10.0 mi North 19.6 mph 26.5 mph 0.00 in   Overcast
2:55 PM 39.9 °F 31.4 °F 32.0 °F 73% 30.31 in 9.0 mi North 16.1 mph 25.3 mph 0.00 in   Overcast
3:13 PM 39.2 °F 29.3 °F 32.0 °F 75% 30.30 in 9.0 mi North 20.7 mph 28.8 mph N/A   Overcast
3:55 PM 37.0 °F 27.0 °F 28.9 °F 73% 30.36 in 10.0 mi North 18.4 mph 27.6 mph N/A   Overcast
4:55 PM 32.0 °F 19.8 °F 26.1 °F 79% 30.42 in 8.0 mi North 20.7 mph 27.6 mph N/A   Overcast
5:43 PM 28.4 °F 14.1 °F 21.2 °F 74% 30.42 in 10.0 mi North 24.2 mph 32.2 mph N/A   Overcast
5:55 PM 28.9 °F 15.8 °F 21.0 °F 72% 30.47 in 10.0 mi North 20.7 mph 29.9 mph N/A   Overcast
6:09 PM 28.4 °F 16.6 °F 21.2 °F 74% 30.45 in 9.0 mi North 16.1 mph 26.5 mph N/A   Overcast
6:22 PM 28.4 °F 15.1 °F 21.2 °F 74% 30.46 in 10.0 mi North 20.7 mph 26.5 mph N/A   Overcast
6:55 PM 27.0 °F 15.6 °F 19.0 °F 72% 30.51 in 10.0 mi North 13.8 mph 21.9 mph N/A   Overcast
7:55 PM 28.0 °F 17.0 °F 18.0 °F 66% 30.53 in 10.0 mi North 13.8 mph 24.2 mph N/A   Overcast
8:55 PM 27.0 °F 13.9 °F 17.1 °F 66% 30.56 in 10.0 mi North 18.4 mph 25.3 mph N/A   Overcast
9:55 PM 25.0 °F 10.9 °F 16.0 °F 69% 30.61 in 10.0 mi North 19.6 mph 29.9 mph N/A   Partly Cloudy
10:55 PM 24.1 °F 10.1 °F 15.1 °F 69% 30.63 in 10.0 mi North 18.4 mph 26.5 mph N/A   Clear
11:55 PM 21.9 °F 9.2 °F 14.0 °F 72% 30.67 in 10.0 mi North 13.8 mph - N/A   Clear